Simultaneous Nadir Overpasses (SNOs) Predictions

Prediction of SNOs between METOP-B and TERRA Satellite Orbit:

Table of predicted SNOs for the next 14.0 days since TLE Epoch: 3/27/2021
Index Date (METOP-B) Time (METOP-B) Lat,Lon (METOP-B) SZA (METOP-B ) Date (TERRA) Time (TERRA) Lat,Lon (TERRA) SZA (TERRA ) Distance(km) Time Diff (sec)
1 03/27/2021 04:10:05 81.30, 163.56 81.15 03/27/2021 04:11:07 81.30, 163.58 81.17 0.63 62
2 03/27/2021 05:00:44 -81.31, -28.45 98.79 03/27/2021 05:00:33 -81.31, -28.52 98.81 1.26 11
3 03/29/2021 23:44:25 81.31,-129.68 80.12 03/29/2021 23:45:19 81.31,-129.76 80.13 1.39 54
4 03/30/2021 00:35:04 -81.31, 37.91 99.87 03/30/2021 00:34:45 -81.30, 37.79 99.90 2.25 19
5 04/01/2021 19:18:45 81.31, -63.33 79.05 04/01/2021 19:19:31 81.30, -63.52 79.04 3.35 46
6 04/01/2021 20:09:25 -81.31, 104.25 100.94 04/01/2021 20:08:57 -81.32, 104.43 100.93 2.99 28
7 04/04/2021 14:53:06 81.31, 2.99 77.99 04/04/2021 14:53:43 81.31, 3.04 78.01 0.90 37
8 04/04/2021 15:43:45 -81.32, 170.97 101.95 04/04/2021 15:43:09 -81.32, 171.02 101.95 1.34 36
9 04/07/2021 10:27:26 81.31, 69.69 76.99 04/07/2021 10:27:55 81.31, 69.56 76.99 2.02 29



Historial Predications of SNOs between METOP-B and TERRA
